Location: Guilderland
(42.7045°N, 73.9115°W)
Time: 03:19:09
(UTC+00:00)

SL-8 Rocket - Pass Details

Date: 24 January 2020
Orbit: 956 x 991 km, 82.9° (Epoch: 16 February)

Event Time Altitude Azimuth Distance (km) Brightness Sun altitude
Rises 22:29:17 0° 166° (SSE) 3,689 7.1 -6.1°
Reaches altitude 10° 22:31:54 10° 160° (SSE) 2,742 6.4 -6.6°
Maximum altitude 22:37:50 45° 90° (E) 1,318 4.3 -7.6°
Drops below altitude 10° 22:43:45 10° 20° (NNE) 2,742 6.0 -8.6°
Sets 22:46:21 0° 14° (NNE) 3,689 6.7 -9.1°
